Weather Roundup
Issued by NWS

Home | Current Version | Previous Version | Text Only | Print | Product List | Glossary On
Versions: 1 2 3 4 5 6 7 8 9 10 11 12 13 14 15 16 17 18 19 20 21 22 23 24 25 26 27 28 29 30 31 32 33 34 35 36 37 38 39 40 41 42 43 44 45 46 47 48 49 50
000
NZUS93 KARX 221159
HRRWXR

CURRENT HOURLY OBSERVATIONS ACROSS
MUCH OF THE UPPER MISSISSIPPI VALLEY
NATIONAL WEATHER SERVICE LA CROSSE WI
600 AM CST THU FEB 22 2018


...SOUTHEAST MINNESOTA...


CITY           SKY/WX    TMP DP  RH WIND       PRES   REMARKS
ROCHESTER      MOCLDY    17  13  84 E6        30.55F WCI   9
ROCHESTER/MAYO CLOUDY    16  11  79 E3        30.57S
WINONA         FAIR      18  12  79 CALM      30.61F
AUSTIN         CLOUDY    19  18  93 E7        30.53F WCI  10
ALBERT LEA     FLURRIES  19  16  86 E5        30.53R WCI  13
DODGE CENTER   FAIR      14   9  79 E5        30.54S WCI   6
PRESTON        LGT SNOW  18  14  87 NE3       30.56S
OWATONNA       CLOUDY    16  10  79 E6        30.55R WCI   7
FARIBAULT      CLOUDY    10   7  85 CALM      30.57R
$$

...ELSEWHERE IN MINNESOTA...


CITY           SKY/WX    TMP DP  RH WIND       PRES   REMARKS
MINNEAPOLIS    CLOUDY    11   6  81 E3        30.61R
INTNL FALLS    FAIR     -18 -23  77 SE5       30.52R WCI -31
DULUTH         FAIR      -2  -8  76 CALM      30.56R
RED WING       MOCLDY     7   1  78 CALM      30.62S
REDWOOD FALLS  FAIR       4   0  83 E6        30.54F WCI  -7
MANKATO        CLOUDY    15   8  73 E7        30.56S WCI   5
WORTHINGTON    LGT SNOW  14  10  84 NE8       30.47F FOG     WCI   3
FAIRMONT       LGT SNOW  15  12  88 NE7       30.52S FOG     WCI   5
$$

...SOUTHWEST WISCONSIN...


CITY           SKY/WX    TMP DP  RH WIND       PRES   REMARKS
LA CROSSE      CLOUDY    21  16  81 CALM      30.62S
PRAIRIE DU CHI CLOUDY    24  14  64 NE3       30.61R
BOSCOBEL       CLOUDY    25  15  66 CALM      30.62R
LONE ROCK      CLOUDY    24  14  65 NE5       30.62R WCI  18
PLATTEVILLE    FAIR      24  17  74 NE12      30.55S WCI  13
FORT MC COY    CLOUDY    19  15  86 NE6       30.63R WCI  11
CAMP DOUGLAS   FAIR      19  14  81 CALM      30.62R
MAUSTON-NEW LI CLOUDY    20  15  79 CALM      30.61S
VIROQUA        CLOUDY    20  18  88 E7        30.57R WCI  12
WIS DELLS      CLOUDY    20  13  74 NE3       30.60R
$$

...ELSEWHERE IN WISCONSIN...


CITY           SKY/WX    TMP DP  RH WIND       PRES   REMARKS
MILWAUKEE      CLOUDY    30  22  72 NE12      30.59R WCI  20
MADISON        CLOUDY    22  13  68 NE8       30.60R WCI  12
GREEN BAY      CLOUDY    20  11  68 N5        30.66R WCI  13
EAU CLAIRE     NOT AVBL
BLACK RVR FLS  CLOUDY    14   9  82 CALM      30.63S
MEDFORD        CLOUDY     8   2  78 E3        30.59R
WAUSAU         MOCLDY     6   3  87 CALM      30.61R
WIS RAPIDS     CLOUDY    16   8  71 N7        30.64R WCI   6
MARSHFIELD     MOCLDY    11   4  73 E6        30.60R WCI   1
RICE LAKE      FAIR      -3  -7  85 CALM      30.63S
$$

...NORTHEAST IOWA...


CITY           SKY/WX    TMP DP  RH WIND       PRES   REMARKS
WATERLOO       CLOUDY    23  16  74 NE15      30.49F WCI  10
DUBUQUE        CLOUDY    24  14  65 NE13      30.54R WCI  12
DECORAH        CLOUDY    21  18  86 NE5       30.54F WCI  15
MASON CITY     CLOUDY    21  18  88 E8        30.53S WCI  11
CHARLES CITY   LGT SNOW  21  21 100 E9        30.53F WCI  11
OELWEIN        CLOUDY    23  19  86 NE14      30.51F WCI  11
$$

...ELSEWHERE IN IOWA...


CITY           SKY/WX    TMP DP  RH WIND       PRES   REMARKS
DES MOINES     FLURRIES  25  17  72 NE8       30.49R WCI  16
IOWA CITY      CLOUDY    28  15  58 NE13      30.52F WCI  17
FORT DODGE     FLURRIES  21  18  88 NE6       30.50S WCI  13
MARSHALLTOWN   CLOUDY    24  17  74 E12       30.50R WCI  13
CEDAR RAPIDS   CLOUDY    26  14  60 NE15      30.49F WCI  14
$$

...NORTHERN ILLINOIS...


CITY           SKY/WX    TMP DP  RH WIND       PRES   REMARKS
CHICAGO-OHARE  CLOUDY    33  26  75 NE13      30.54R WCI  24
CHICAGO-MIDWAY CLOUDY    34  27  75 NE14      30.53S WCI  25
MOLINE         CLOUDY    29  20  69 NE12      30.52R WCI  19
ROCKFORD       CLOUDY    28  21  75 NE12      30.56S WCI  18
PEORIA         MIX PCPN  31  27  85 NE12      30.48R WCI  22
$$

NOTE: "FAIR" INDICATES FEW OR NO CLOUDS BELOW 12,000 FEET WITH NO
SIGNIFICANT WEATHER AND/OR OBSTRUCTIONS TO VISIBILITY. WIND
SPEEDS ARE IN MILES-PER-HOUR.




USA.gov is the U.S. government's official web portal to all federal, state and local government web resources and services.